• In Belarus
  • List of Countries
  • For 7 days
  • Water Temperature
  • Weather Map
  • Weather Widgets
  • user-avatar
    Login

    Hourly Weather Pryvokzal'ne

    Today, 20 September, Friday

    Time Temperature Precipitation Wind Pressure Humidity
    00:00 +4°C° 0 mm 3 mps 749 mmHg 91%
    01:00 +4°C° 0 mm 3 mps 749 mmHg 93%
    02:00 +4°C° 0 mm 2 mps 749 mmHg 95%
    03:00 +4°C° 0 mm 2 mps 749 mmHg 95%
    04:00 +4°C° 0 mm 2 mps 749 mmHg 95%
    05:00 +3°C° 0 mm 2 mps 749 mmHg 96%
    06:00 +5°C° 0 mm 2 mps 749 mmHg 89%
    07:00 +6°C° 0 mm 2 mps 749 mmHg 83%
    08:00 +8°C° 0 mm 3 mps 749 mmHg 76%
    09:00 +10°C° 0 mm 3 mps 749 mmHg 68%
    10:00 +11°C° 0 mm 3 mps 748 mmHg 60%
    11:00 +13°C° 0 mm 3 mps 748 mmHg 53%
    12:00 +13°C° 0.5 mm 4 mps 748 mmHg 53%
    13:00 +13°C° 0.5 mm 4 mps 748 mmHg 54%
    14:00 +13°C° 0.5 mm 4 mps 747 mmHg 54%
    15:00 +12°C° 0.5 mm 4 mps 747 mmHg 60%
    16:00 +11°C° 0.5 mm 4 mps 747 mmHg 66%
    17:00 +10°C° 0.5 mm 4 mps 747 mmHg 72%
    18:00 +8°C° 0 mm 4 mps 748 mmHg 78%
    19:00 +6°C° 0 mm 4 mps 748 mmHg 83%
    20:00 +5°C° 0 mm 3 mps 748 mmHg 89%
    21:00 +4°C° 0 mm 3 mps 748 mmHg 91%
    22:00 +4°C° 0 mm 3 mps 748 mmHg 93%
    23:00 +3°C° 0 mm 3 mps 748 mmHg 95%

    Tomorrow, 21 September, Saturday

    Time Temperature Precipitation Wind Pressure Humidity
    00:00 +3°C° 0 mm 3 mps 748 mmHg 94%
    01:00 +3°C° 0 mm 3 mps 748 mmHg 94%
    02:00 +3°C° 0 mm 3 mps 749 mmHg 93%
    03:00 +2°C° 0 mm 3 mps 749 mmHg 94%
    04:00 +1°C° 0 mm 4 mps 749 mmHg 94%
    05:00 +1°C° 0 mm 4 mps 750 mmHg 95%
    06:00 +1°C° 0 mm 4 mps 750 mmHg 91%
    07:00 +3°C° 0 mm 3 mps 750 mmHg 87%
    08:00 +4°C° 0 mm 3 mps 750 mmHg 83%
    09:00 +6°C° 0 mm 4 mps 750 mmHg 73%
    10:00 +8°C° 0 mm 4 mps 751 mmHg 62%
    11:00 +9°C° 0 mm 5 mps 751 mmHg 51%
    12:00 +10°C° 0 mm 5 mps 751 mmHg 46%
    13:00 +10°C° 0 mm 5 mps 750 mmHg 42%
    14:00 +11°C° 0 mm 4 mps 750 mmHg 38%
    15:00 +11°C° 0 mm 4 mps 750 mmHg 40%
    16:00 +10°C° 0 mm 3 mps 750 mmHg 42%
    17:00 +9°C° 0 mm 2 mps 749 mmHg 45%
    18:00 +9°C° 0 mm 2 mps 749 mmHg 45%
    19:00 +8°C° 0 mm 2 mps 749 mmHg 46%
    20:00 +7°C° 0 mm 2 mps 749 mmHg 47%
    21:00 +8°C° 0 mm 3 mps 749 mmHg 53%
    22:00 +8°C° 0 mm 3 mps 748 mmHg 60%
    23:00 +8°C° 0 mm 3 mps 748 mmHg 66%

    Day after tomorrow, 22 September, Sunday

    Time Temperature Precipitation Wind Pressure Humidity
    00:00 +7°C° 0 mm 4 mps 747 mmHg 73%
    01:00 +7°C° 0 mm 4 mps 747 mmHg 81%
    02:00 +7°C° 0 mm 4 mps 746 mmHg 88%
    03:00 +8°C° 0.3 mm 5 mps 746 mmHg 90%
    04:00 +9°C° 0.3 mm 6 mps 745 mmHg 92%
    05:00 +10°C° 0.3 mm 6 mps 745 mmHg 93%
    06:00 +10°C° 0.1 mm 7 mps 745 mmHg 90%
    07:00 +11°C° 0.1 mm 7 mps 745 mmHg 87%
    08:00 +11°C° 0.1 mm 8 mps 745 mmHg 83%
    09:00 +11°C° 0.1 mm 8 mps 745 mmHg 81%
    10:00 +11°C° 0.1 mm 8 mps 745 mmHg 78%
    11:00 +12°C° 0.1 mm 9 mps 745 mmHg 76%
    12:00 +12°C° 0 mm 8 mps 745 mmHg 73%
    13:00 +12°C° 0 mm 8 mps 745 mmHg 71%
    14:00 +13°C° 0 mm 8 mps 745 mmHg 68%
    15:00 +14°C° 0 mm 7 mps 745 mmHg 66%
    16:00 +15°C° 0 mm 6 mps 745 mmHg 64%
    17:00 +15°C° 0 mm 6 mps 745 mmHg 63%
    18:00 +14°C° 0 mm 6 mps 745 mmHg 67%
    19:00 +13°C° 0 mm 6 mps 746 mmHg 72%
    20:00 +11°C° 0 mm 6 mps 746 mmHg 77%
    21:00 +10°C° 0 mm 5 mps 747 mmHg 75%
    22:00 +10°C° 0 mm 4 mps 747 mmHg 73%
    23:00 +9°C° 0 mm 3 mps 748 mmHg 71%

    23 September, Monday

    Time Temperature Precipitation Wind Pressure Humidity
    00:00 +7°C° 0 mm 3 mps 748 mmHg 76%
    01:00 +5°C° 0 mm 3 mps 749 mmHg 81%
    02:00 +4°C° 0 mm 2 mps 749 mmHg 86%
    03:00 +4°C° 0 mm 2 mps 750 mmHg 87%
    04:00 +3°C° 0 mm 2 mps 750 mmHg 88%
    05:00 +2°C° 0 mm 2 mps 750 mmHg 89%
    06:00 +4°C° 0 mm 2 mps 751 mmHg 82%
    07:00 +5°C° 0 mm 2 mps 751 mmHg 74%
    08:00 +6°C° 0 mm 2 mps 751 mmHg 67%
    09:00 +7°C° 0 mm 2 mps 751 mmHg 58%
    10:00 +9°C° 0 mm 2 mps 752 mmHg 48%
    11:00 +10°C° 0 mm 2 mps 752 mmHg 39%
    12:00 +12°C° 0 mm 1 mps 752 mmHg 36%
    13:00 +13°C° 0 mm 1 mps 751 mmHg 33%
    14:00 +14°C° 0 mm 1 mps 751 mmHg 31%
    15:00 +13°C° 0 mm 1 mps 751 mmHg 34%
    16:00 +12°C° 0 mm 1 mps 751 mmHg 37%
    17:00 +11°C° 0 mm 1 mps 751 mmHg 40%
    18:00 +10°C° 0 mm 1 mps 751 mmHg 42%
    19:00 +7°C° 0 mm 2 mps 751 mmHg 45%
    20:00 +6°C° 0 mm 2 mps 751 mmHg 47%
    21:00 +6°C° 0 mm 2 mps 750 mmHg 48%
    22:00 +5°C° 0 mm 2 mps 750 mmHg 50%
    23:00 +5°C° 0 mm 2 mps 750 mmHg 51%

    24 September, Tuesday

    Time Temperature Precipitation Wind Pressure Humidity
    00:00 +5°C° 0 mm 2 mps 750 mmHg 51%
    01:00 +5°C° 0 mm 2 mps 750 mmHg 51%
    02:00 +5°C° 0 mm 2 mps 750 mmHg 51%
    03:00 +6°C° 0 mm 2 mps 750 mmHg 50%
    04:00 +5°C° 0 mm 3 mps 750 mmHg 50%
    05:00 +5°C° 0 mm 3 mps 750 mmHg 50%
    06:00 +7°C° 0 mm 3 mps 750 mmHg 50%
    07:00 +7°C° 0 mm 3 mps 750 mmHg 50%
    08:00 +8°C° 0 mm 3 mps 749 mmHg 50%
    09:00 +9°C° 0 mm 3 mps 750 mmHg 48%
    10:00 +10°C° 0 mm 3 mps 750 mmHg 47%
    11:00 +13°C° 0 mm 2 mps 750 mmHg 46%
    12:00 +13°C° 0 mm 2 mps 750 mmHg 45%
    13:00 +14°C° 0 mm 2 mps 749 mmHg 44%
    14:00 +14°C° 0 mm 2 mps 749 mmHg 43%
    15:00 +13°C° 0 mm 2 mps 749 mmHg 47%
    16:00 +13°C° 0 mm 2 mps 749 mmHg 50%
    17:00 +12°C° 0 mm 2 mps 749 mmHg 53%
    18:00 +9°C° 0 mm 2 mps 749 mmHg 58%
    19:00 +8°C° 0 mm 2 mps 749 mmHg 63%
    20:00 +7°C° 0 mm 2 mps 749 mmHg 67%
    21:00 +6°C° 0 mm 2 mps 749 mmHg 67%
    22:00 +5°C° 0 mm 2 mps 749 mmHg 68%
    23:00 +4°C° 0 mm 3 mps 749 mmHg 68%

    25 September, Wednesday

    Time Temperature Precipitation Wind Pressure Humidity
    00:00 +4°C° 0 mm 2 mps 749 mmHg 68%
    01:00 +4°C° 0 mm 2 mps 749 mmHg 69%
    02:00 +3°C° 0 mm 2 mps 749 mmHg 69%
    03:00 +3°C° 0 mm 2 mps 749 mmHg 70%
    04:00 +3°C° 0 mm 2 mps 749 mmHg 71%
    05:00 +2°C° 0 mm 2 mps 749 mmHg 72%
    06:00 +4°C° 0 mm 2 mps 749 mmHg 67%
    07:00 +5°C° 0 mm 2 mps 750 mmHg 61%
    08:00 +5°C° 0 mm 3 mps 750 mmHg 56%
    09:00 +8°C° 0 mm 3 mps 750 mmHg 51%
    10:00 +10°C° 0 mm 3 mps 750 mmHg 45%
    11:00 +12°C° 0 mm 3 mps 750 mmHg 40%
    12:00 +13°C° 0 mm 2 mps 750 mmHg 38%
    13:00 +14°C° 0 mm 2 mps 750 mmHg 36%
    14:00 +14°C° 0 mm 2 mps 749 mmHg 34%
    15:00 +13°C° 0 mm 2 mps 749 mmHg 38%
    16:00 +12°C° 0 mm 2 mps 749 mmHg 41%
    17:00 +10°C° 0 mm 2 mps 749 mmHg 45%
    18:00 +9°C° 0 mm 2 mps 750 mmHg 50%
    19:00 +7°C° 0 mm 3 mps 750 mmHg 56%
    20:00 +4°C° 0 mm 3 mps 750 mmHg 61%
    21:00 +4°C° 0 mm 3 mps 750 mmHg 64%
    22:00 +3°C° 0 mm 3 mps 750 mmHg 66%
    23:00 +3°C° 0 mm 3 mps 750 mmHg 69%
    Show more